Time,TemperatureF,DewpointF,PressureIn,WindDirection,WindDirectionDegrees,WindSpeedMPH,WindSpeedGustMPH,Humidity,HourlyPrecipIn,Conditions,Clouds,dailyrainin,SoftwareType,DateUTC
2013-03-03 00:14:00,33.0,26.0,26.68,NNE,18,0.0,-999.0,74,-99.99,,,0.00,weatherlink.com 1.10,2013-03-03 05:14:00,
2013-03-03 00:29:00,32.9,25.0,26.68,North,5,0.0,-999.0,74,-99.99,,,0.00,weatherlink.com 1.10,2013-03-03 05:29:00,
2013-03-03 00:44:00,32.8,25.0,26.68,WNW,298,0.0,-999.0,74,-99.99,,,0.00,weatherlink.com 1.10,2013-03-03 05:44:00,
2013-03-03 00:59:00,32.7,26.0,26.68,NW,306,0.0,-999.0,75,-99.99,,,0.00,weatherlink.com 1.10,2013-03-03 05:59:00,
2013-03-03 01:14:00,32.6,26.0,28.60,North,11,0.0,-999.0,76,-99.99,,,0.00,weatherlink.com 1.10,2013-03-03 06:14:00,
2013-03-03 01:29:00,32.5,26.0,26.56,NNE,22,0.0,-999.0,76,-99.99,,,0.00,weatherlink.com 1.10,2013-03-03 06:29:00,
2013-03-03 01:44:00,32.4,26.0,26.56,WSW,254,0.0,-999.0,77,-99.99,,,0.00,weatherlink.com 1.10,2013-03-03 06:44:00,
2013-03-03 01:59:00,32.3,26.0,26.56,NW,315,0.0,-999.0,77,-99.99,,,0.00,weatherlink.com 1.10,2013-03-03 06:59:00,
2013-03-03 02:14:00,32.3,26.0,26.56,NE,44,0.0,-999.0,77,-99.99,,,0.00,weatherlink.com 1.10,2013-03-03 07:14:00,
2013-03-03 02:29:00,32.3,25.0,26.56,NW,313,0.0,-999.0,75,-99.99,,,0.00,weatherlink.com 1.10,2013-03-03 07:29:00,
2013-03-03 02:44:00,32.3,26.0,26.56,NW,312,0.0,-999.0,76,-99.99,,,0.00,weatherlink.com 1.10,2013-03-03 07:44:00,
2013-03-03 02:59:00,32.1,25.0,26.56,South,173,0.0,-999.0,75,-99.99,,,0.00,weatherlink.com 1.10,2013-03-03 07:59:00,
2013-03-03 03:14:00,32.1,25.0,26.56,South,176,0.0,-999.0,75,-99.99,,,0.00,weatherlink.com 1.10,2013-03-03 08:14:00,
2013-03-03 03:29:00,32.1,25.0,26.56,SSE,168,0.0,-999.0,76,-99.99,,,0.00,weatherlink.com 1.10,2013-03-03 08:29:00,
2013-03-03 03:44:00,32.1,25.0,26.56,North,355,0.0,-999.0,75,-99.99,,,0.00,weatherlink.com 1.10,2013-03-03 08:44:00,
2013-03-03 03:59:00,32.0,26.0,26.56,North,355,0.0,-999.0,77,-99.99,,,0.00,weatherlink.com 1.10,2013-03-03 08:59:00,
2013-03-03 04:14:00,32.0,25.0,26.56,NNE,19,0.0,-999.0,76,-99.99,,,0.00,weatherlink.com 1.10,2013-03-03 09:14:00,
2013-03-03 04:29:00,31.9,25.0,26.56,NNE,15,0.0,-999.0,77,-99.99,,,0.00,weatherlink.com 1.10,2013-03-03 09:29:00,
2013-03-03 04:43:00,31.8,25.0,26.56,NNW,348,0.0,-999.0,76,-99.99,,,0.00,weatherlink.com 1.10,2013-03-03 09:43:00,
2013-03-03 04:59:00,31.8,25.0,30.04,NNW,348,0.0,-999.0,76,-99.99,,,0.00,weatherlink.com 1.10,2013-03-03 09:59:00,
2013-03-03 05:14:00,31.8,26.0,30.04,NNW,348,0.0,-999.0,78,-99.99,,,0.00,weatherlink.com 1.10,2013-03-03 10:14:00,
2013-03-03 05:29:00,31.7,25.0,30.04,NNW,346,0.0,-999.0,77,-99.99,,,0.00,weatherlink.com 1.10,2013-03-03 10:29:00,
2013-03-03 05:44:00,31.6,25.0,30.04,NNW,346,0.0,-999.0,77,-99.99,,,0.00,weatherlink.com 1.10,2013-03-03 10:44:00,
2013-03-03 05:59:00,31.6,25.0,30.04,NNE,15,0.0,-999.0,77,-99.99,,,0.00,weatherlink.com 1.10,2013-03-03 10:59:00,
2013-03-03 06:14:00,31.4,25.0,30.04,North,360,0.0,-999.0,77,-99.99,,,0.00,weatherlink.com 1.10,2013-03-03 11:14:00,
2013-03-03 06:29:00,31.4,25.0,30.04,North,360,0.0,-999.0,78,-99.99,,,0.00,weatherlink.com 1.10,2013-03-03 11:29:00,
2013-03-03 06:44:00,31.4,25.0,30.04,North,360,0.0,-999.0,78,-99.99,,,0.00,weatherlink.com 1.10,2013-03-03 11:44:00,
2013-03-03 06:59:00,31.4,25.0,27.18,North,360,0.0,-999.0,78,-99.99,,,0.00,weatherlink.com 1.10,2013-03-03 11:59:00,
2013-03-03 07:14:00,31.6,25.0,27.18,North,10,0.0,-999.0,78,-99.99,,,0.00,weatherlink.com 1.10,2013-03-03 12:14:00,
2013-03-03 07:29:00,31.6,25.0,27.18,North,9,0.0,-999.0,78,-99.99,,,0.00,weatherlink.com 1.10,2013-03-03 12:29:00,
2013-03-03 07:44:00,32.1,26.0,27.18,North,355,0.0,-999.0,79,-99.99,,,0.00,weatherlink.com 1.10,2013-03-03 12:44:00,
2013-03-03 07:59:00,32.4,26.0,27.18,West,260,0.0,-999.0,77,-99.99,,,0.00,weatherlink.com 1.10,2013-03-03 12:59:00,
2013-03-03 08:14:00,32.5,26.0,27.18,WSW,248,0.0,-999.0,78,-99.99,,,0.00,weatherlink.com 1.10,2013-03-03 13:14:00,
2013-03-03 08:29:00,32.5,27.0,27.18,NNE,32,0.0,-999.0,79,-99.99,,,0.00,weatherlink.com 1.10,2013-03-03 13:29:00,
2013-03-03 08:44:00,33.0,27.0,27.18,WNW,284,1.0,-999.0,79,-99.99,,,0.00,weatherlink.com 1.10,2013-03-03 13:44:00,
2013-03-03 08:59:00,32.8,27.0,27.18,West,278,0.0,-999.0,80,-99.99,,,0.00,weatherlink.com 1.10,2013-03-03 13:59:00,
2013-03-03 09:14:00,33.5,28.0,27.18,NNE,32,1.0,-999.0,79,-99.99,,,0.00,weatherlink.com 1.10,2013-03-03 14:14:00,
2013-03-03 09:29:00,34.1,28.0,27.18,NNE,12,1.0,-999.0,78,-99.99,,,0.00,weatherlink.com 1.10,2013-03-03 14:29:00,
2013-03-03 09:44:00,34.8,28.0,24.25,NNW,337,0.0,-999.0,77,-99.99,,,0.00,weatherlink.com 1.10,2013-03-03 14:44:00,
2013-03-03 09:59:00,35.2,29.0,24.25,NNE,30,1.0,-999.0,77,-99.99,,,0.00,weatherlink.com 1.10,2013-03-03 14:59:00,
2013-03-03 10:14:00,34.8,29.0,24.25,North,5,5.0,-999.0,78,-99.99,,,0.00,weatherlink.com 1.10,2013-03-03 15:14:00,
2013-03-03 10:29:00,34.4,29.0,24.25,NW,325,2.0,-999.0,79,-99.99,,,0.00,weatherlink.com 1.10,2013-03-03 15:29:00,
2013-03-03 10:44:00,34.5,29.0,24.25,North,355,0.0,-999.0,80,-99.99,,,0.00,weatherlink.com 1.10,2013-03-03 15:44:00,
2013-03-03 10:59:00,35.3,30.0,24.25,NNW,332,2.0,-999.0,81,-99.99,,,0.00,weatherlink.com 1.10,2013-03-03 15:59:00,
2013-03-03 11:14:00,36.0,30.0,24.25,WNW,295,0.0,-999.0,78,-99.99,,,0.00,weatherlink.com 1.10,2013-03-03 16:14:00,
2013-03-03 11:29:00,36.0,30.0,26.94,SSW,199,0.0,-999.0,78,-99.99,,,0.00,weatherlink.com 1.10,2013-03-03 16:29:00,
2013-03-03 11:44:00,36.7,30.0,26.76,NNE,15,0.0,-999.0,78,-99.99,,,0.00,weatherlink.com 1.10,2013-03-03 16:44:00,
2013-03-03 11:59:00,37.6,30.0,26.76,WNW,292,1.0,-999.0,75,-99.99,,,0.00,weatherlink.com 1.10,2013-03-03 16:59:00,
2013-03-03 12:14:00,37.6,30.0,26.76,WNW,300,2.0,-999.0,75,-99.99,,,0.00,weatherlink.com 1.10,2013-03-03 17:14:00,
2013-03-03 12:29:00,37.7,30.0,26.76,NE,42,3.0,-999.0,74,-99.99,,,0.00,weatherlink.com 1.10,2013-03-03 17:29:00,
2013-03-03 12:44:00,37.6,30.0,26.76,NNW,329,1.0,-999.0,74,-99.99,,,0.00,weatherlink.com 1.10,2013-03-03 17:44:00,
2013-03-03 12:59:00,37.7,30.0,26.76,North,355,0.0,-999.0,74,-99.99,,,0.00,weatherlink.com 1.10,2013-03-03 17:59:00,
2013-03-03 13:14:00,38.3,30.0,26.76,NNW,338,0.0,-999.0,73,-99.99,,,0.00,weatherlink.com 1.10,2013-03-03 18:14:00,
2013-03-03 13:29:00,39.4,31.0,27.16,WNW,290,3.0,-999.0,71,-99.99,,,0.00,weatherlink.com 1.10,2013-03-03 18:29:00,
2013-03-03 13:44:00,39.3,31.0,27.70,NNW,334,0.0,-999.0,71,-99.99,,,0.00,weatherlink.com 1.10,2013-03-03 18:44:00,
2013-03-03 13:59:00,39.6,31.0,27.70,NNE,21,0.0,-999.0,71,-99.99,,,0.00,weatherlink.com 1.10,2013-03-03 18:59:00,
2013-03-03 14:14:00,39.3,31.0,27.70,North,5,1.0,-999.0,72,-99.99,,,0.00,weatherlink.com 1.10,2013-03-03 19:14:00,
2013-03-03 14:29:00,39.2,31.0,27.70,NNW,338,0.0,-999.0,73,-99.99,,,0.00,weatherlink.com 1.10,2013-03-03 19:29:00,
2013-03-03 14:44:00,38.9,32.0,29.50,NNE,15,3.0,-999.0,76,-99.99,,,0.00,weatherlink.com 1.10,2013-03-03 19:44:00,
2013-03-03 14:59:00,38.3,32.0,29.50,NW,308,0.0,-999.0,77,-99.99,,,0.00,weatherlink.com 1.10,2013-03-03 19:59:00,
2013-03-03 15:14:00,37.7,31.0,29.71,NNW,329,3.0,-999.0,78,-99.99,,,0.00,weatherlink.com 1.10,2013-03-03 20:14:00,
2013-03-03 15:29:00,37.4,31.0,29.71,WSW,247,1.0,-999.0,79,-99.99,,,0.00,weatherlink.com 1.10,2013-03-03 20:29:00,
2013-03-03 15:44:00,37.5,32.0,29.71,SW,214,0.0,-999.0,79,-99.99,,,0.00,weatherlink.com 1.10,2013-03-03 20:44:00,
2013-03-03 15:59:00,37.4,31.0,29.71,West,260,0.0,-999.0,79,-99.99,,,0.00,weatherlink.com 1.10,2013-03-03 20:59:00,
2013-03-03 16:14:00,36.9,32.0,29.71,West,271,1.0,-999.0,82,-99.99,,,0.00,weatherlink.com 1.10,2013-03-03 21:14:00,
2013-03-03 16:29:00,36.6,32.0,29.71,West,270,0.0,-999.0,83,-99.99,,,0.00,weatherlink.com 1.10,2013-03-03 21:29:00,
2013-03-03 16:43:00,36.4,32.0,29.71,West,273,0.0,-999.0,84,-99.99,,,0.00,weatherlink.com 1.10,2013-03-03 21:43:00,
2013-03-03 16:59:00,36.2,32.0,29.71,West,272,0.0,-999.0,84,-99.99,,,0.00,weatherlink.com 1.10,2013-03-03 21:59:00,
2013-03-03 17:14:00,35.7,31.0,29.71,West,272,0.0,-999.0,84,-99.99,,,0.00,weatherlink.com 1.10,2013-03-03 22:14:00,
2013-03-03 17:29:00,35.2,31.0,29.71,West,273,0.0,-999.0,85,-99.99,,,0.00,weatherlink.com 1.10,2013-03-03 22:29:00,
2013-03-03 17:44:00,34.7,31.0,29.71,West,273,0.0,-999.0,85,-99.99,,,0.00,weatherlink.com 1.10,2013-03-03 22:44:00,
2013-03-03 17:59:00,34.4,31.0,29.71,West,273,0.0,-999.0,86,-99.99,,,0.00,weatherlink.com 1.10,2013-03-03 22:59:00,
2013-03-03 18:14:00,34.4,30.0,29.71,NNW,346,0.0,-999.0,85,-99.99,,,0.00,weatherlink.com 1.10,2013-03-03 23:14:00,
2013-03-03 18:29:00,34.2,31.0,29.71,NW,321,0.0,-999.0,86,-99.99,,,0.00,weatherlink.com 1.10,2013-03-03 23:29:00,
2013-03-03 18:44:00,33.8,32.0,29.71,WNW,301,0.0,-999.0,92,-99.99,,,0.00,weatherlink.com 1.10,2013-03-03 23:44:00,
2013-03-03 18:59:00,33.4,30.0,29.71,WNW,282,0.0,-999.0,87,-99.99,,,0.00,weatherlink.com 1.10,2013-03-03 23:59:00,
2013-03-03 19:14:00,33.1,30.0,29.71,WNW,282,0.0,-999.0,88,-99.99,,,0.00,weatherlink.com 1.10,2013-03-04 00:14:00,
2013-03-03 19:29:00,33.0,30.0,29.54,WNW,282,0.0,-999.0,89,-99.99,,,0.00,weatherlink.com 1.10,2013-03-04 00:29:00,
2013-03-03 19:44:00,32.9,30.0,29.54,West,281,0.0,-999.0,89,-99.99,,,0.00,weatherlink.com 1.10,2013-03-04 00:44:00,
2013-03-03 19:59:00,32.8,30.0,29.54,West,279,0.0,-999.0,89,-99.99,,,0.00,weatherlink.com 1.10,2013-03-04 00:59:00,
2013-03-03 20:14:00,32.7,30.0,29.54,WNW,288,0.0,-999.0,89,-99.99,,,0.00,weatherlink.com 1.10,2013-03-04 01:14:00,
2013-03-03 20:29:00,32.6,30.0,29.54,WNW,288,0.0,-999.0,89,-99.99,,,0.00,weatherlink.com 1.10,2013-03-04 01:29:00,
2013-03-03 20:44:00,32.5,30.0,29.54,WNW,288,0.0,-999.0,89,-99.99,,,0.00,weatherlink.com 1.10,2013-03-04 01:44:00,
2013-03-03 20:59:00,32.4,30.0,29.54,WNW,288,0.0,-999.0,89,-99.99,,,0.00,weatherlink.com 1.10,2013-03-04 01:59:00,
2013-03-03 21:14:00,32.3,30.0,29.54,WNW,288,0.0,-999.0,89,-99.99,,,0.00,weatherlink.com 1.10,2013-03-04 02:14:00,
2013-03-03 21:29:00,32.3,30.0,29.54,WNW,288,0.0,-999.0,89,-99.99,,,0.00,weatherlink.com 1.10,2013-03-04 02:29:00,
2013-03-03 21:44:00,32.3,30.0,29.54,ENE,67,0.0,-999.0,89,-99.99,,,0.00,weatherlink.com 1.10,2013-03-04 02:44:00,
2013-03-03 21:59:00,32.4,29.0,29.54,NNW,341,0.0,-999.0,87,-99.99,,,0.00,weatherlink.com 1.10,2013-03-04 02:59:00,
2013-03-03 22:14:00,33.0,29.0,29.54,WNW,292,0.0,-999.0,84,-99.99,,,0.00,weatherlink.com 1.10,2013-03-04 03:14:00,
2013-03-03 22:29:00,33.4,28.0,29.54,NNW,334,0.0,-999.0,81,-99.99,,,0.01,weatherlink.com 1.10,2013-03-04 03:29:00,
2013-03-03 22:44:00,33.4,28.0,29.54,West,269,3.0,-999.0,79,-99.99,,,0.01,weatherlink.com 1.10,2013-03-04 03:44:00,
2013-03-03 22:59:00,33.4,27.0,29.54,NNW,331,2.0,-999.0,78,-99.99,,,0.01,weatherlink.com 1.10,2013-03-04 03:59:00,
2013-03-03 23:14:00,33.4,27.0,29.54,West,275,0.0,-999.0,76,-99.99,,,0.01,weatherlink.com 1.10,2013-03-04 04:14:00,
2013-03-03 23:29:00,33.3,26.0,29.54,NNW,342,0.0,-999.0,75,-99.99,,,0.01,weatherlink.com 1.10,2013-03-04 04:29:00,
2013-03-03 23:44:00,33.1,26.0,29.54,NW,319,0.0,-999.0,76,-99.99,,,0.01,weatherlink.com 1.10,2013-03-04 04:44:00,
2013-03-03 23:59:00,32.9,26.0,24.60,West,281,1.0,-999.0,75,-99.99,,,0.01,weatherlink.com 1.10,2013-03-04 04:59:00,